Location: Hilde
(52.9479°N, 6.4449°E)
Time: 07:48:19
(UTC+00:00)

Cosmos 2266 Rocket - Pass Details

Date: 15 May 2026
Orbit: 933 x 1007 km, 82.9° (Epoch: 5 June)

Event Time Altitude Azimuth Distance (km) Brightness Sun altitude
Rises 22:38:29 0° 350° (N) 3,603 8.8 -17.1°
Reaches altitude 10° 22:40:59 10° 353° (N) 2,655 7.6 -17.2°
Maximum altitude 22:47:02 71° 78° (ENE) 989 4.0 -17.4°
Enters shadow 22:50:27 27° 156° (SSE) 1,714 4.7 -17.5°
